User: anonymous
Location: Unspecified
(0.0000°N, 0.0000°E)
Time: 23:31:31
(UTC+02:00)
Language:

SJ-6B - Orbit

View from above orbital plane
View from above orbital plane
View from above satellite
View from above satellite

Ground track
Ground track

The orbit data is extracted from the following two-line orbital elements,

1 28415U 04035C   14113.45319649  .00004880  00000-0  36371-3 0  1808
2 28415 097.7991 117.8283 0060477 056.0545 304.6407 15.01902203525530
Epoch (UTC): 23 April 2014 10:52:36
Eccentricity: 0.0060477
inclination: 97.7991°
perigee height: 519 km
apogee height: 603 km
right ascension of ascending node: 117.8283°
argument of perigee: 56.0545°
revolutions per day: 15.01902203
mean anomaly at epoch: 304.6407°
orbit number at epoch: 52553

The dashed part of the orbit path shows where the satellite is in the earth's shadow,  

DLR